Lakeland, FL

2:56 PM EST on February 06, 2016 (GMT -0500)
Lakeland Linder Regional

Weather History for KLAL - January, 2013

Change the Weather History Date:

Saturday, January 26, 2013

  Actual Average Record
Temperature  
Mean Temperature 60 °F -  
Max Temperature 75 °F 69 °F 84 °F (2002)
Min Temperature 44 °F 49 °F 16 °F (1981)
Degree Days  
Heating Degree Days 6    
Growing Degree Days 10 (Base 50)    
Moisture  
Dew Point 48 °F    
Average Humidity 79    
Maximum Humidity 100    
Minimum Humidity 38    
Precipitation  
Precipitation 0.00 in - - ()
Sea Level Pressure  
Sea Level Pressure 30.24 in    
Wind  
Wind Speed 1 mph (NW)    
Max Wind Speed 7 mph    
Max Gust Speed -    
Visibility 8 miles    
Events      
Averages and records for this station are not official NWS values.
T = Trace of Precipitation, MM = Missing Value Source: NWS Daily Summary

Daily Weather History Graph

Daily Weather History Graph

Search for Another Location

Airport or City:

Trip Planner

Search our weather history database for the weather conditions in past years. The results will help you decide how hot, cold, wet, or windy it might be!

Date:

Astronomy

Jan. 26, 2013 Rise Set
Actual Time 7:17 AM EST 6:03 PM EST
Civil Twilight 6:53 AM EST 6:28 PM EST
Nautical Twilight 6:24 AM EST 6:57 PM EST
Astronomical Twilight 5:56 AM EST 7:24 PM EST
Moon 5:53 PM EST (1/26) 6:37 AM EST (1/26)
Length of Visible Light 11h 35m
Length of Day
10h 46m
Full, 100% of the Moon is Illuminated
Jan 26
Full
Jan 26
Full
Feb 3
Last Quarter
Feb 10
New
Feb 17
First Quarter

Hourly Weather History & Observations

Time (EST) Temp. Dew Point Humidity Pressure Visibility Wind Dir Wind Speed Gust Speed Precip Events Conditions
12:15 AM 46.4 °F 42.8 °F 87% 30.24 in 10.0 mi Calm Calm - N/A   Clear
12:35 AM 48.2 °F 42.8 °F 82% 30.24 in 10.0 mi Calm Calm - N/A   Clear
12:55 AM 50.0 °F 44.6 °F 82% 30.25 in 10.0 mi North 3.5 mph - N/A   Clear
1:15 AM 50.0 °F 44.6 °F 82% 30.25 in 10.0 mi North 3.5 mph - N/A   Clear
1:35 AM 50.0 °F 46.4 °F 87% 30.25 in 10.0 mi Calm Calm - N/A   Clear
1:55 AM 50.0 °F 44.6 °F 82% 30.25 in 7.0 mi Calm Calm - N/A   Clear
2:15 AM 50.0 °F 46.4 °F 87% 30.25 in 7.0 mi Calm Calm - N/A   Clear
2:35 AM 50.0 °F 46.4 °F 87% 30.24 in 7.0 mi Calm Calm - N/A   Clear
2:55 AM 46.4 °F 44.6 °F 93% 30.24 in 4.0 mi Calm Calm - N/A   Clear
3:15 AM 46.4 °F 44.6 °F 93% 30.23 in 4.0 mi Calm Calm - N/A   Clear
3:35 AM 46.4 °F 44.6 °F 93% 30.22 in 4.0 mi Calm Calm - N/A   Clear
3:55 AM 44.6 °F 44.6 °F 100% 30.23 in 4.0 mi Calm Calm - N/A   Clear
4:15 AM 44.6 °F 44.6 °F 100% 30.23 in 5.0 mi Calm Calm - N/A   Clear
4:35 AM 44.6 °F 42.8 °F 93% 30.23 in 4.0 mi Calm Calm - N/A   Clear
4:55 AM 44.6 °F 42.8 °F 93% 30.23 in 5.0 mi Calm Calm - N/A   Clear
5:15 AM 44.6 °F 42.8 °F 93% 30.23 in 4.0 mi Calm Calm - N/A   Clear
5:35 AM 44.6 °F 42.8 °F 93% 30.23 in 1.0 mi Calm Calm - N/A   Mist
6:50 AM 44.6 °F 42.8 °F 93% 30.25 in 2.0 mi Calm Calm - N/A   Clear
7:50 AM 44.6 °F 42.8 °F 93% 30.27 in 3.0 mi Calm Calm - N/A   Clear
8:50 AM 53.6 °F 51.8 °F 94% 30.29 in 4.0 mi Calm Calm - N/A   Clear
9:50 AM 62.6 °F 53.6 °F 72% 30.30 in 7.0 mi Calm Calm - N/A   Clear
10:50 AM 68.0 °F 51.8 °F 56% 30.30 in 7.0 mi NNW 6.9 mph - N/A   Clear
11:50 AM 69.8 °F 50.0 °F 49% 30.28 in 10.0 mi WNW 5.8 mph - N/A   Partly Cloudy
12:50 PM 71.6 °F 48.2 °F 43% 30.25 in 15.0 mi NW 6.9 mph - N/A   Partly Cloudy
1:50 PM 73.4 °F 48.2 °F 41% 30.21 in 15.0 mi West 5.8 mph - N/A   Clear
2:54 PM 75.2 °F 48.2 °F 38% 30.19 in 15.0 mi WNW 5.8 mph - N/A   Clear
3:52 PM 75.2 °F 48.2 °F 38% 30.19 in 15.0 mi NNW 5.8 mph - N/A   Clear
4:51 PM 73.4 °F 48.2 °F 41% 30.18 in 15.0 mi NNW 4.6 mph - N/A   Clear
5:50 PM 71.6 °F 51.8 °F 50% 30.20 in 12.0 mi NW 4.6 mph - N/A   Clear
6:50 PM 66.2 °F 53.6 °F 64% 30.21 in 12.0 mi NW 5.8 mph - N/A   Clear
7:55 PM 62.6 °F 53.6 °F 72% 30.23 in 12.0 mi NNW 4.6 mph - N/A   Clear
8:50 PM 60.8 °F 53.6 °F 77% 30.23 in 12.0 mi NNW 3.5 mph - N/A   Clear
9:50 PM 57.2 °F 53.6 °F 88% 30.24 in 12.0 mi Calm Calm - N/A   Clear
9:55 PM 59.0 °F 53.6 °F 82% 30.24 in 10.0 mi Calm Calm - N/A   Clear
10:15 PM 55.4 °F 51.8 °F 88% 30.25 in 10.0 mi Calm Calm - N/A   Clear
10:35 PM 55.4 °F 51.8 °F 88% 30.25 in 10.0 mi Calm Calm - N/A   Clear
10:55 PM 53.6 °F 51.8 °F 94% 30.26 in 7.0 mi Calm Calm - N/A   Clear
11:15 PM 53.6 °F 51.8 °F 94% 30.26 in 10.0 mi Calm Calm - N/A   Clear
11:35 PM 53.6 °F 51.8 °F 94% 30.26 in 5.0 mi Calm Calm - N/A   Clear
11:55 PM 51.8 °F 50.0 °F 94% 30.26 in 1.0 mi Calm Calm - N/A   Mist